Powrót do katalogu

STARLINK-37642

AktywnyŁącznośćVLEO
NORAD 69455·PAYLOAD·🇺🇸 United States

Wystrzelony Jun 8, 2026 z Cape Canaveral Space Force Station

Loading…

Następne Przeloty (najbliższe 24 godziny)

TLE

ŚwieżeSource: CelesTrak SupGP

Epoka: Sep 15, 2026, 04:07 UTC

1 69455C 26127N   26258.17201389 -.00053505  00000+0 -15810-2 0  2585
2 69455  53.1580 190.3951 0001310  88.7699  42.2544 15.34413428    10

Śledź STARLINK-37642 w czasie rzeczywistym z AllMySat

Download on the App Store